Total_Precipitation_Accumulation
0.20 0.27 0.45 0.46 0.38 0.08 0.03 0.09 0.13 0.13 0.20 0.13 0.09 0.07 0.06 0.05 0.03 0.07 0.02 0.03 0.07 0.05 0.03 0.03 0.05 0.03 0.02 0.02 0.05 0.04 0.05 0.13 0.08 0.06 0.07 0.24 0.77 0.61 0.21 0.40 0.10 0.06 0.15
0.38 0.16 0.60 0.84 0.98 0.37 0.09 0.04 0.03 0.09 0.22 0.24 0.17 0.14 0.20 0.20 0.13 0.02 0.02 0.01 0.03 0.03 0.03 0.08 0.06 0.06 0.07 0.03 0.03 0.06 0.05 0.07 0.11 0.16 0.04 0.11 0.63 0.75 0.22 0.14 0.12 0.05 0.13
0.15 0.28 0.50 0.68 0.69 1.07 0.56 0.06 0.03 0.07 0.09 0.13 0.16 0.17 0.23 0.26 0.23 0.19 0.11 0.05 0.03 0.06 0.11 0.15 0.06 0.11 0.11 0.05 0.08 0.04 0.03 0.13 0.13 0.28 0.11 0.09 0.12 0.10 0.29 0.31 0.24 0.04 0.04
0.02 0.02 0.09 0.19 0.30 0.60 0.52 0.18 0.05 0.06 0.03 0.03 0.07 0.16 0.18 0.24 0.23 0.25 0.22 0.14 0.16 0.12 0.20 0.24 0.15 0.14 0.18 0.36 0.22 0.16 0.07 0.13 0.19 0.18 0.18 0.15 0.18 0.25 0.27 0.32 0.26 0.17 0.14
0.00 0.00 0.00 0.00 0.00 0.03 0.25 0.36 0.11 0.02 0.06 0.07 0.05 0.05 0.06 0.12 0.16 0.29 0.28 0.31 0.30 0.26 0.24 0.21 0.11 0.09 0.23 0.49 0.33 0.21 0.31 0.35 0.15 0.15 0.16 0.18 0.08 0.13 0.19 0.17 0.20 0.21 0.16
0.00 0.00 0.00 0.00 0.00 0.00 0.00 0.09 0.13 0.03 0.02 0.00 0.01 0.09 0.08 0.03 0.08 0.17 0.17 0.16 0.20 0.24 0.23 0.22 0.23 0.42 0.25 0.19 0.16 0.14 0.30 0.42 0.31 0.23 0.08 0.13 0.12 0.10 0.08 0.14 0.24 0.37 0.19
0.00 0.00 0.00 0.00 0.00 0.00 0.00 0.00 0.01 0.08 0.12 0.05 0.09 0.10 0.12 0.07 0.09 0.07 0.17 0.10 0.07 0.08 0.12 0.14 0.10 0.04 0.14 0.18 0.25 0.21 0.15 0.15 0.12 0.22 0.17 0.11 0.19 0.28 0.38 0.23 0.16 0.34 0.22
0.00 0.00 0.00 0.00 0.00 0.00 0.00 0.00 0.00 0.00 0.01 0.06 0.07 0.11 0.31 0.27 0.44 0.39 0.45 0.31 0.12 0.07 0.05 0.08 0.08 0.12 0.14 0.22 0.24 0.17 0.11 0.07 0.11 0.16 0.10 0.04 0.04 0.23 0.39 0.48 0.41 0.24 0.18
0.00 0.00 0.00 0.00 0.00 0.00 0.00 0.00 0.00 0.00 0.00 0.00 0.00 0.01 0.02 0.06 0.31 0.58 0.72 0.53 0.40 0.31 0.24 0.16 0.11 0.07 0.08 0.27 0.32 0.15 0.14 0.07 0.07 0.13 0.14 0.14 0.13 0.23 0.33 0.42 0.24 0.29 0.03
0.00 0.00 0.00 0.00 0.00 0.00 0.00 0.00 0.00 0.00 0.00 0.00 0.00 0.00 0.03 0.01 0.08 0.15 0.51 0.56 0.42 0.49 0.62 0.48 0.25 0.15 0.30 0.46 0.26 0.20 0.18 0.08 0.19 0.21 0.19 0.08 0.10 0.15 0.18 0.18 0.27 0.24 0.16
0.00 0.00 0.00 0.00 0.00 0.00 0.00 0.00 0.00 0.00 0.00 0.01 0.01 0.01 0.02 0.04 0.08 0.08 0.20 0.49 0.45 0.42 0.32 0.43 0.53 0.47 0.34 0.34 0.34 0.16 0.06 0.14 0.25 0.30 0.26 0.19 0.15 0.09 0.04 0.02 0.09 0.22 0.18
0.00 0.00 0.00 0.00 0.00 0.00 0.00 0.01 0.01 0.01 0.01 0.02 0.02 0.01 0.00 0.01 0.05 0.24 0.46 0.72 0.96 0.78 0.63 0.39 0.35 0.38 0.39 0.34 0.28 0.16 0.16 0.22 0.15 0.16 0.17 0.12 0.12 0.05 0.02 0.04 0.13 0.19 0.23
0.00 0.00 0.00 0.00 0.00 0.00 0.01 0.01 0.01 0.02 0.02 0.01 0.01 0.01 0.00 0.00 0.00 0.02 0.11 0.31 0.94 0.91 0.86 0.74 0.53 0.39 0.39 0.19 0.08 0.08 0.15 0.08 0.07 0.06 0.05 0.04 0.04 0.03 0.05 0.07 0.24 0.54 0.68
0.00 0.00 0.00 0.00 0.00 0.00 0.00 0.01 0.01 0.01 0.02 0.03 0.03 0.02 0.01 0.01 0.00 0.01 0.03 0.03 0.06 0.15 0.15 0.12 0.08 0.08 0.06 0.03 0.02 0.01 0.01 0.04 0.08 0.03 0.01 0.02 0.06 0.07 0.06 0.18 0.34 0.38 0.49
0.01 0.01 0.00 0.00 0.01 0.00 0.00 0.01 0.01 0.01 0.02 0.01 0.01 0.03 0.04 0.02 0.01 0.00 0.00 0.01 0.03 0.04 0.03 0.08 0.09 0.07 0.03 0.03 0.03 0.02 0.03 0.07 0.09 0.08 0.07 0.05 0.09 0.13 0.11 0.17 0.64 1.09 1.10
0.01 0.01 0.01 0.00 0.00 0.01 0.01 0.01 0.01 0.00 0.00 0.00 0.00 0.00 0.00 0.00 0.00 0.00 0.00 0.01 0.01 0.01 0.01 0.02 0.03 0.02 0.04 0.05 0.09 0.10 0.09 0.11 0.13 0.18 0.16 0.12 0.06 0.07 0.09 0.18 0.34 0.53 0.65
0.02 0.01 0.01 0.02 0.01 0.02 0.02 0.04 0.02 0.00 0.00 0.00 0.00 0.00 0.01 0.00 0.00 0.01 0.01 0.01 0.01 0.02 0.00 0.00 0.01 0.01 0.01 0.03 0.11 0.16 0.17 0.18 0.24 0.21 0.20 0.16 0.16 0.15 0.23 0.25 0.29 0.35 0.31
0.01 0.05 0.02 0.02 0.02 0.03 0.03 0.03 0.03 0.01 0.00 0.00 0.01 0.01 0.01 0.01 0.01 0.01 0.01 0.02 0.01 0.01 0.00 0.00 0.01 0.05 0.08 0.07 0.08 0.12 0.18 0.22 0.26 0.23 0.23 0.23 0.28 0.35 0.32 0.39 0.37 0.29 0.20
0.01 0.01 0.01 0.01 0.02 0.03 0.02 0.02 0.02 0.02 0.01 0.01 0.01 0.01 0.02 0.01 0.01 0.02 0.03 0.01 0.01 0.01 0.01 0.02 0.02 0.07 0.21 0.19 0.16 0.21 0.28 0.29 0.32 0.32 0.28 0.25 0.29 0.50 0.58 0.57 0.35 0.31 0.34
0.02 0.04 0.02 0.01 0.02 0.02 0.02 0.02 0.02 0.02 0.01 0.01 0.01 0.00 0.00 0.02 0.00 0.00 0.01 0.01 0.03 0.04 0.02 0.08 0.09 0.12 0.14 0.20 0.26 0.29 0.33 0.39 0.41 0.39 0.33 0.32 0.35 0.47 0.41 0.40 0.35 0.32 0.31
0.02 0.02 0.03 0.01 0.01 0.01 0.02 0.03 0.03 0.02 0.01 0.01 0.01 0.01 0.02 0.01 0.01 0.01 0.02 0.03 0.05 0.08 0.08 0.09 0.14 0.16 0.19 0.23 0.26 0.29 0.35 0.42 0.58 0.69 0.60 0.47 0.37 0.36 0.39 0.47 0.46 0.45 0.45
0.01 0.01 0.00 0.01 0.01 0.01 0.02 0.01 0.01 0.00 0.00 0.00 0.00 0.01 0.04 0.03 0.03 0.05 0.06 0.05 0.06 0.07 0.09 0.10 0.13 0.17 0.17 0.18 0.23 0.22 0.22 0.25 0.30 0.40 0.47 0.55 0.58 0.51 0.50 0.50 0.46 0.46 0.44
0.01 0.00 0.00 0.00 0.00 0.02 0.03 0.00 0.00 0.00 0.01 0.01 0.01 0.02 0.03 0.04 0.04 0.06 0.08 0.08 0.10 0.13 0.18 0.20 0.20 0.17 0.14 0.10 0.08 0.10 0.11 0.13 0.15 0.24 0.36 0.39 0.45 0.50 0.50 0.42 0.36 0.34 0.32
0.00 0.00 0.00 0.00 0.00 0.00 0.01 0.00 0.00 0.00 0.02 0.07 0.18 0.22 0.15 0.20 0.21 0.17 0.17 0.22 0.32 0.37 0.40 0.43 0.47 0.45 0.43 0.47 0.43 0.30 0.22 0.22 0.19 0.17 0.24 0.31 0.31 0.28 0.25 0.23 0.18 0.18 0.18
0.00 0.00 0.00 0.00 0.00 0.00 0.01 0.00 0.02 0.02 0.07 0.19 0.32 0.27 0.32 0.36 0.28 0.36 0.31 0.34 0.35 0.40 0.54 0.64 0.65 0.62 0.45 0.38 0.46 0.50 0.51 0.54 0.36 0.31 0.30 0.31 0.29 0.28 0.23 0.22 0.25 0.25 0.21
0.00 0.00 0.00 0.00 0.00 0.00 0.00 0.00 0.02 0.11 0.20 0.16 0.34 0.56 0.59 0.46 0.37 0.35 0.34 0.32 0.34 0.36 0.38 0.36 0.36 0.39 0.38 0.27 0.24 0.30 0.36 0.35 0.36 0.42 0.36 0.30 0.27 0.24 0.22 0.20 0.20 0.25 0.27